This is the latest recevied weather packets stored in our database for station/object JR4ZXW. If no packets are shown the sender has not sent any weather packets the latest 10 day(s).
| Time | Temp. | Humidity | Pressure | Rain* | Wind** | Luminosity | Snow |
|---|---|---|---|---|---|---|---|
| 1788149313 | 93° F | 52% | 756.7 mmHg | 0 in | - | - | - |
| 1788147513 | 93° F | 54% | 756.9 mmHg | 0 in | - | - | - |
| 1788145713 | 91° F | 58% | 757.3 mmHg | 0 in | - | - | - |
| 1788143913 | 91° F | 61% | 757.4 mmHg | 0 in | - | - | - |
| 1788142113 | 89° F | 63% | 757.7 mmHg | 0 in | - | - | - |
| 1788140313 | 89° F | 62% | 757.7 mmHg | 0 in | - | - | - |
| 1788138513 | 87° F | 69% | 757.9 mmHg | 0 in | - | - | - |
| 1788136713 | 86° F | 70% | 757.9 mmHg | 0 in | - | - | - |
| 1788134913 | 86° F | 73% | 757.7 mmHg | 0 in | - | - | - |
| 1788133113 | 86° F | 72% | 757.8 mmHg | 0 in | - | - | - |
| 1788131313 | 84° F | 79% | 757.6 mmHg | 0 in | - | - | - |
| 1788129513 | 84° F | 78% | 757.5 mmHg | 0 in | - | - | - |
| 1788127713 | 82° F | 81% | 757.5 mmHg | 0 in | - | - | - |
| 1788125913 | 82° F | 82% | 757.3 mmHg | 0 in | - | - | - |
| 1788124113 | 82° F | 83% | 757.1 mmHg | 0 in | - | - | - |
| 1788122313 | 84° F | 76% | 757 mmHg | 0 in | - | - | - |
| 1788120513 | 84° F | 74% | 756.9 mmHg | 0 in | - | - | - |
| 1788118713 | 86° F | 73% | 756.8 mmHg | 0 in | - | - | - |
| 1788116913 | 86° F | 69% | 756.5 mmHg | 0 in | - | - | - |
| 1788115113 | 86° F | 70% | 756.5 mmHg | 0 in | - | - | - |
| 1788113313 | 86° F | 65% | 756.6 mmHg | 0 in | - | - | - |
| 1788111513 | 86° F | 62% | 756.6 mmHg | 0 in | - | - | - |
| 1788109713 | 86° F | 64% | 756.6 mmHg | 0 in | - | - | - |
| 1788107913 | 86° F | 61% | 756.5 mmHg | 0 in | - | - | - |
| 1788106113 | 86° F | 60% | 756.7 mmHg | 0 in | - | - | - |
* Rain latest hour (hover to see other rain measurements)
** Current wind speed in m/s (hover to see current wind gust speed)